sat.trackr.live / text

‹ back to catalog

STARLINK-32378

NORAD 61064 · 2024-164Q

PAYLOAD ACTIVE UNKNOWN

§ Identity

Operator
Country
US
Launch date
2024-09-13
Launch site
AFWTR
Launch vehicle
Mass (kg)
RCS (m²)

Purposes: comms

External: N2YO · Heavens-Above · Gunter

§ Orbital elements

Epoch: 2026-05-25T03:19:30.844416Z

Period
94.01 min
Inclination
53.1613°
Eccentricity
0.0001354
Mean motion
15.31695473 rev/d
Perigee alt
469.8 km
Apogee alt
471.7 km
Semi-major
6,848.9 km
B*
-3.6078e-6
RAAN
95.9213°
Arg perigee
81.6076°
Mean anomaly
278.5079°
Rev number
9,518

§ Raw data

STARLINK-323781 61064U 24164Q   26145.13855144 -.00000477  00000+0 -36078-5 0  99912 61064  53.1613  95.9213 0001354  81.6076 278.5079 15.31695473 95183

JSON: /api/v1/satellites/61064 · /tle

For live sub-satellite position, see the globe view (requires WebGL).

§ Visibility from observer

Set your observer location to see the next 7 days of passes ≥ 10°. The values pass through the URL so the page stays shareable.

No JS? Fill the form by hand. The geolocation button needs JavaScript.